Location: Gungolding
(48.9246°N, 11.3502°E)
Time: 09:37:35
(UTC+02:00)

Transit 2A Rocket - Visible Passes

Search period start: 31 March 2020 00:00
Search period end: 10 April 2020 00:00
Orbit: 589 x 914 km, 66.7° (Epoch: 30 March)

Date Brightness Start Highest point End Pass type
(mag) Time Alt. Az. Time Alt. Az. Time Alt. Az.
31 Mar 7.3 00:29:19 10° WNW 00:31:11 17° WNW 00:31:11 17° WNW visible
31 Mar 7.0 20:21:24 10° NNW 20:24:57 18° NNE 20:28:41 10° ENE visible
31 Mar 5.5 22:03:22 10° NNW 22:08:43 53° NE 22:10:01 44° E visible
31 Mar 6.6 23:46:13 10° NW 23:49:56 31° W 23:49:56 31° W visible
01 Apr 6.0 21:20:56 10° NNW 21:25:58 37° NE 21:28:48 23° E visible
01 Apr 5.6 23:03:24 10° NW 23:08:43 53° WSW 23:08:43 53° WSW visible
02 Apr 6.4 20:38:31 10° NNW 20:43:07 27° NE 20:47:37 12° E visible
02 Apr 5.2 22:20:45 10° NW 22:26:18 82° WSW 22:27:32 57° SSE visible
03 Apr 7.4 00:04:51 10° WNW 00:07:27 16° W 00:07:27 16° W visible
03 Apr 5.2 21:38:11 10° NNW 21:43:43 68° NE 21:46:24 33° SE visible
03 Apr 6.7 23:21:23 10° WNW 23:25:59 26° WSW 23:26:19 26° WSW visible
04 Apr 5.7 20:55:43 10° NNW 21:01:01 47° NE 21:05:18 17° ESE visible
04 Apr 6.1 22:38:25 10° NW 22:43:38 40° WSW 22:45:14 33° SSW visible
05 Apr 6.1 20:13:17 10° NNW 20:18:14 33° NE 20:23:29 10° ESE visible
05 Apr 5.5 21:55:40 10° NW 22:01:12 62° WSW 22:04:12 29° S visible
05 Apr 7.6 23:41:02 10° W 23:42:52 12° WSW 23:44:08 11° WSW visible
06 Apr 5.2 21:13:02 10° NW 21:18:39 87° ENE 21:23:14 18° SE visible
06 Apr 7.2 22:56:45 10° WNW 23:00:42 19° WSW 23:03:10 15° SW visible
07 Apr 5.4 20:30:31 10° NNW 20:36:01 60° NE 20:41:54 10° SE visible
07 Apr 6.7 22:13:32 10° NW 22:18:25 30° WSW 22:22:17 16° SSW visible
08 Apr 6.1 21:30:38 10° NW 21:36:02 47° WSW 21:41:28 11° S visible
09 Apr 5.5 20:47:56 10° NW 20:53:34 72° WSW 20:59:32 10° SSE visible
09 Apr 7.7 22:32:29 10° WNW 22:35:22 14° WSW 22:38:19 10° SW visible
